Los Angeles Downtown, CA

7:11 AM PST on January 23, 2018 (GMT -0800)
Los Angeles Downtown

Weather History for KCQT - October, 2012

Change the Weather History Date:

Friday, October 12, 2012

  Actual Average Record
Temperature  
Mean Temperature 64 °F 69 °F  
Max Temperature 72 °F 79 °F 99 °F (1950)
Min Temperature 55 °F 60 °F 43 °F (1886)
Degree Days  
Heating Degree Days 1 0  
Month to date heating degree days 1 0  
Since 1 July heating degree days 1 2  
Cooling Degree Days 0 5  
Month to date cooling degree days 77 65  
Year to date cooling degree days 1156 1143  
Growing Degree Days 13 (Base 50)    
Moisture  
Dew Point 51 °F    
Average Humidity 65    
Maximum Humidity 83    
Minimum Humidity 47    
Precipitation  
Precipitation 0.00 in 0.02 in 0.43 in (1941)
Month to date precipitation 0.01 0.21  
Year to date precipitation 4.95 11.11  
Since 1 July precipitation 0.02  
Sea Level Pressure  
Sea Level Pressure 30.08 in    
Wind  
Wind Speed 2 mph (West)    
Max Wind Speed 12 mph    
Max Gust Speed 16 mph    
Visibility 10 miles    
Events      
T = Trace of Precipitation, MM = Missing Value Source: NWS Daily Summary

Daily Weather History Graph

Daily Weather History Graph

Search for Another Location

Airport or City:

Trip Planner

Search our weather history database for the weather conditions in past years. The results will help you decide how hot, cold, wet, or windy it might be!

Date:

Astronomy

Oct. 12, 2012 Rise Set
Actual Time 6:56 AM PDT 6:21 PM PDT
Civil Twilight 6:31 AM PDT 6:46 PM PDT
Nautical Twilight 6:01 AM PDT 7:15 PM PDT
Astronomical Twilight 5:32 AM PDT 7:44 PM PDT
Moon 3:51 AM PDT (10/12) 4:28 PM PDT (10/12)
Length of Visible Light 12h 15m
Length of Day
11h 25m
Waning Crescent, 10% of the Moon is Illuminated
Oct 12
Waning Crescent
Oct 15
New
Oct 21
First Quarter
Oct 29
Full
Nov 6
Last Quarter

Hourly Weather History & Observations

Time (PDT) Temp. Dew Point Humidity Pressure Visibility Wind Dir Wind Speed Gust Speed Precip Events Conditions
12:47 AM 57.9 °F 51.1 °F 78% 29.98 in 10.0 mi Calm Calm - N/A   Scattered Clouds
1:47 AM 57.0 °F 51.1 °F 81% 29.98 in 10.0 mi Calm Calm - N/A   Partly Cloudy
2:47 AM 57.0 °F 51.1 °F 81% 29.98 in 10.0 mi Calm Calm - N/A   Clear
3:47 AM 55.9 °F 50.0 °F 80% 29.99 in 10.0 mi Calm Calm - N/A   Clear
4:47 AM 55.9 °F 48.9 °F 77% 30.00 in 10.0 mi Calm Calm - N/A   Partly Cloudy
5:47 AM 55.9 °F 50.0 °F 80% 30.03 in 10.0 mi Calm Calm - N/A   Scattered Clouds
6:47 AM 55.9 °F 50.0 °F 80% 30.04 in 10.0 mi Calm Calm - N/A   Scattered Clouds
7:47 AM 59.0 °F 48.9 °F 69% 30.06 in 10.0 mi Calm Calm - N/A   Scattered Clouds
8:47 AM 62.1 °F 51.1 °F 67% 30.09 in 10.0 mi Calm Calm - N/A   Mostly Cloudy
9:47 AM 62.1 °F 52.0 °F 70% 30.11 in 10.0 mi Calm Calm - N/A   Overcast
10:47 AM 64.0 °F 52.0 °F 65% 30.12 in 10.0 mi Calm Calm - N/A   Overcast
11:47 AM 66.9 °F 52.0 °F 59% 30.12 in 10.0 mi East 4.6 mph - N/A   Partly Cloudy
12:47 PM 69.1 °F 48.9 °F 49% 30.11 in 10.0 mi Calm Calm - N/A   Mostly Cloudy
1:47 PM 70.0 °F 48.9 °F 47% 30.09 in 10.0 mi Variable 3.5 mph - N/A   Partly Cloudy
2:47 PM 71.1 °F 51.1 °F 49% 30.10 in 10.0 mi Variable 3.5 mph - N/A   Clear
3:47 PM 69.1 °F 51.1 °F 53% 30.10 in 10.0 mi West 9.2 mph - N/A   Clear
4:47 PM 68.0 °F 52.0 °F 56% 30.10 in 10.0 mi West 4.6 mph - N/A   Overcast
5:47 PM 66.9 °F 54.0 °F 63% 30.11 in 10.0 mi West 6.9 mph - N/A   Mostly Cloudy
6:47 PM 64.9 °F 54.0 °F 68% 30.12 in 10.0 mi Variable 3.5 mph - N/A   Partly Cloudy
7:47 PM 64.9 °F 53.1 °F 65% 30.12 in 10.0 mi West 3.5 mph - N/A   Clear
8:47 PM 64.0 °F 52.0 °F 65% 30.13 in 10.0 mi Calm Calm - N/A   Clear
9:47 PM 63.0 °F 52.0 °F 67% 30.14 in 10.0 mi Calm Calm - N/A   Clear
10:47 PM 62.1 °F 52.0 °F 70% 30.15 in 10.0 mi Calm Calm - N/A   Clear
11:47 PM 62.1 °F 52.0 °F 70% 30.15 in 10.0 mi Calm Calm - N/A   Clear